This demonstration page uses our WeatherBlox Daily Observations layout. Learn more.

Left ArrowRight Arrow

Hourly Observations for December 4, 2015

Temp ( °F °C ) Dew Point ( °F °C ) Humidity (%) Winds ( mph kmh ) Pressure ( in mb ) Visibility ( mi km ) Precip ( " mm )
12:58 am 00:58 Clear 24 -4.5 23 -4.9 97 97 Calm 30.39 1029 10 16 0.00 0.00
1:58 am 01:58 Clear 26 -3.6 24 -4.5 94 94 Calm 30.40 1030 10 16 0.00 0.00
2:58 am 02:58 Clear 24 -4.6 23 -5.2 96 96 S 2 4 30.40 1030 10 16 0.00 0.00
3:58 am 03:58 Clear 23 -5 22 -5.8 94 94 NW 1 2 30.40 1030 10 16 0.00 0.00
4:58 am 04:58 Clear 25 -4.1 22 -5.3 91 91 Calm 30.39 1029 10 16 0.00 0.00
5:58 am 05:58 Clear 23 -4.8 22 -5.8 93 93 SE 3 6 30.41 1030 10 16 0.00 0.00
6:58 am 06:58 Clear 23 -4.9 22 -5.3 97 97 Calm 30.41 1030 10 16 0.00 0.00
7:58 am 07:58 Sunny 23 -4.9 22 -5.5 96 96 ESE 5 7 30.45 1031 10 16 0.00 0.00
8:58 am 08:58 Sunny 31 -0.4 29 -1.6 92 92 SE 2 4 30.45 1031 10 16 0.00 0.00
9:58 am 09:58 Sunny 37 2.5 31 -0.4 81 81 SSE 6 9 30.45 1031 10 16 0.00 0.00
10:58 am 10:58 Sunny 42 5.4 33 0.6 71 71 SSE 9 15 30.44 1031 10 16 0.00 0.00
11:58 am 11:58 Sunny 45 7.1 34 1.2 66 66 SE 8 13 30.41 1030 10 16 0.00 0.00
12:58 pm 12:58 Sunny 49 9.4 35 1.7 59 59 SSE 13 20 30.39 1029 10 16 0.00 0.00
1:58 pm 13:58 Sunny 51 10.7 36 2.1 56 56 SSE 15 24 30.36 1028 10 16 0.00 0.00
2:58 pm 14:58 Sunny 52 11 37 2.6 56 56 SSE 16 26 30.35 1028 10 16 0.00 0.00
3:58 pm 15:58 Sunny 52 10.9 35 1.9 54 54 SSE 16 26 30.34 1027 10 16 0.00 0.00
4:58 pm 16:58 Clear 46 8 37 2.7 69 69 SE 13 20 30.35 1028 10 16 0.00 0.00
5:58 pm 17:58 Clear 44 6.7 35 1.8 71 71 SE 9 15 30.35 1028 10 16 0.00 0.00
6:58 pm 18:58 Clear 42 5.8 34 1 72 72 SSE 7 11 30.36 1028 10 16 0.00 0.00
7:58 pm 19:58 Clear 41 5 33 0.5 73 73 SSE 9 15 30.38 1029 10 16 0.00 0.00
8:58 pm 20:58 Clear 40 4.7 33 0.5 74 74 SSE 9 15 30.37 1028 10 16 0.00 0.00
9:58 pm 21:58 Clear 42 5.6 34 0.9 72 72 SE 13 20 30.35 1028 10 16 0.00 0.00
10:58 pm 22:58 Partly Cloudy 43 5.9 35 1.5 74 74 SSE 13 20 30.35 1028 10 16 0.00 0.00
11:58 pm 23:58 Clear 43 5.9 36 2 76 76 SSE 9 15 30.36 1028 10 16 0.00 0.00

Powered by AerisWeather